Location: Ferques
(50.8300°N, 1.7599°E)
Time: 19:53:21
(UTC+00:00)

SeaSat 1 - Pass Details

Date: 19 May 2025
Orbit: 738 x 740 km, 108.0° (Epoch: 21 June)

Event Time Altitude Azimuth Distance (km) Brightness Sun altitude
Exits shadow 21:36:47 20° 144° (SE) 1,671 3.6 -13.4°
Maximum altitude 21:40:13 83° 58° (ENE) 752 2.4 -13.7°
Drops below altitude 10° 21:45:09 10° 331° (NNW) 2,260 6.4 -14.1°
Sets 21:47:25 0° 331° (NNW) 3,188 7.7 -14.3°
